User: anonymous   Login
Location: Betzi
(47.2343°N, 9.5260°E)
Time: 16:09:17
(UTC+00:00)
Language:

ATLAS CENTAUR R/B - Orbit

View from above orbital plane
View from above orbital plane
View from above satellite
View from above satellite

Ground track
Ground track

The orbit data is extracted from the following two-line orbital elements,

1 38770U 12048N   22226.95518058 0.00004100  00000-0  22766-3 0    09
2 38770  64.6564 189.5914 0177501 249.0344 110.9656 15.00941734    04
Epoch (UTC): 14 August 2022 22:55:27
Eccentricity: 0.0177501
inclination: 64.6564°
perigee height: 441 km
apogee height: 687 km
right ascension of ascending node: 189.5914°
argument of perigee: 249.0344°
revolutions per day: 15.00941734
mean anomaly at epoch: 110.9656°
orbit number at epoch: 0

The dashed part of the orbit path shows where the satellite is in the earth's shadow,  

DLR